www.pogodaiklimat.ru

Погода и климат >> Архив погоды >> Непал >> Симара


ПОГОДА в Симаре

  • Прогноз погоды в Симаре
  • Монитор погоды в Симаре

АРХИВ ПОГОДЫ в Симаре

Время (UTC), дата Ветер
(напр.,м/с)
 
Видим.   Явления Облачность Т
(С)
Тd
(С)
f
(%)
Тe
(С)
Тes
(С)
Комфортность P
(гПа)
Po
(гПа)
Тmin
(С)
Tmax
(С)
R
(мм)
R24
(мм)
S
(см)
03 9.06 В 2 10 км 3/1 600 м
[Cu hum]
+32.4 +25.6 67 +47 +56 опасность
перегрева
1003.0 988.1 +27.5 6
06 9.06 В 3 10 км 4/3 100 м
[Cu hum Ci fib]
+35.2 +26.4 60 +51 +65 опасность
перегрева
1002.0 987.0
09 9.06 В 1 10 км 4/4 600 м
[Cu hum]
+37.8 +25.6 50 +52 +62 опасность
перегрева
999.8 985.0
12 9.06 С 2 8000 м 6/4 200 м
[Cb cap Ci fib]
+34.0 +24.3 57 +46 +47 опасность
перегрева
917.2 982.4 +38.0
00 10.06 штиль 0 10 км 5/3 200 м
[Cu hum Ac und]
+26.0 +23.7 87 +35 +36 очень
душно
999.2 984.4
03 10.06 штиль 0 10 км 4/3 200 м
[Cu hum Ac und]
+31.2 +25.1 70 +45 +54 опасность
перегрева
999.3 984.5 +21.5 41
06 10.06 В 3 10 км 5/3 200 м
[Cu hum Ci fib]
+34.8 +26.8 63 +52 +64 опасность
перегрева
999.8 985.0
09 10.06 С 4 8000 м гроза без осадков 9/4 200 м
[Cb cap As trans Cs]
+32.6 +26.1 69 +49 +52 опасность
перегрева
998.3 983.3
12 10.06 СЗ 3 8000 м {дождь} 8/4 200 м
[Cb cap Ac As]
+27.2 +22.9 77 +36 +37 очень
душно
997.7 982.7 +35.0 0.0
00 11.06 В 1 10 км 6/3 200 м
[Cu hum Ac und]
+27.6 +23.7 79 +38 +38 очень
душно
999.1 984.1
03 11.06 В 2 10 км 10/4 200 м
[Cu hum Ac As]
+27.8 +24.0 80 +39 +41 очень
душно
1001.2 986.2 +27.5
09 11.06 Ю 3 10 км 1/1 600 м
[Cu hum]
+33.6 +24.7 60 +47 +58 опасность
перегрева
999.5 984.6
12 11.06 В 2 10 км 3 балла +33.0 +24.5 61 +46 +47 опасность
перегрева
997.1 982.2 +34.0 10
00 12.06 штиль 0 15 км 1/1 600 м
[Cu hum]
+26.0 +23.7 87 +35 +36 очень
душно
1001.0 986.1
03 12.06 В 2 15 км 6/4 200 м
[Cu hum Ac As]
+31.0 +23.2 63 +41 +47 опасность
перегрева
1002.2 987.3 +26.0 10
06 12.06 СВ 2 15 км 4/1 600 м
[Cu hum Ci fib]
+34.4 +24.7 57 +47 +66 опасность
перегрева
1001.5 986.6
09 12.06 З 2 12 км 5/1 600 м
[Cu hum Ci fib]
+36.8 +24.7 50 +49 +62 опасность
перегрева
1000.4 985.7
12 12.06 СЗ 2 10 км {гроза} 8/4 200 м
[Cu hum Ac trans]
+26.0 +21.5 76 +33 +34 очень
душно
997.2 982.4 +37.0 0.0
00 13.06 З 2 3500 м дымка 10/4 200 м
[Cu hum Ac As]
+26.6 +24.6 89 +38 +38 очень
душно
1000.6 985.8
03 13.06 штиль 0 10 км 3/3 600 м
[Cu hum]
+31.4 +25.4 71 +46 +56 опасность
перегрева
1001.6 986.8 +24.8
06 13.06 В 1 12 км 6/6 200 м
[Cu Sc]
+25.2 +19.3 70 +30 +41 душно 823.1
12 13.06 З 2 10 км ясно +35.2 +26.9 62 +53 +54 опасность
перегрева
997.1 982.2 +37.4
00 14.06 штиль 0 4000 м дымка 6/3 200 м
[Cu hum Ac trans]
+27.6 +26.6 94 +42 +43 опасность
перегрева
998.2 983.3
06 14.06 В 2 10 км 3/3 600 м
[Cu med, cong]
+36.2 +26.4 57 +52 +68 опасность
перегрева
998.0 983.1
09 14.06 З 2 10 км 3/3 600 м
[Cu med, cong]
+38.0 +24.9 47 +51 +61 опасность
перегрева
996.2 981.4
00 15.06 штиль 0 6000 м ясно +28.4 +25.7 85 +42 +42 опасность
перегрева
996.9 982.1
03 15.06 В 1 7000 м ясно +33.0 +27.5 73 +52 +65 опасность
перегрева
997.9 983.1 +28.4
06 15.06 Ю 3 7000 м 1/1 600 м
[Cu hum]
+36.2 +27.3 60 +55 +72 опасность
перегрева
997.0 982.2
09 15.06 ЮЗ 3 8000 м 1/1 600 м
[Cu hum]
+38.6 +25.1 46 +51 +62 опасность
перегрева
994.7 979.9
00 16.06 штиль 0 7000 м 3 балла +26.8 +24.7 88 +38 +38 очень
душно
997.8 981.9

 

Местоположение метеостанции Симара (Непал): широта 27.16 долгота 84.98 высота над уровнем моря 137 м.

В архиве по умолчанию представлена погода в Симаре за последнюю неделю. Архивные данные за месяц целиком и за предыдущие месяцы, начиная с января 2011 года, Вы можете получить, выбрав интересующий диапазон дат из раскрывающегося списка и нажав кнопку "Ввод!".


*Определитесь, кто Вы:
робот инопланетянин человек

Внимание! Время в таблицах - всемирное. Для получения местного времени необходимо прибавить поправку, которая равна 5.5 ч.

Смотрите также архив погоды в соседних городах и на ближайших метеорологических станциях:

Погода в Катманду (Непал) (71 км)
Погода в Окхалдхунге (Непал) (151 км)
Погода в Покхаре (Непал) (152 км)
Погода в Чхапре (Бихар, Индия) (155 км)
Погода в Сиддхартханагаре (Непал) (156 км)
Погода в Горакпуре (Уттар-Прадеш, Индия) (166 км)
Погода в Патне (Бихар, Индия) (174 км)
Погода в Дханкуте (Непал) (236 км)
Погода в Биратнагаре (Непал) (239 км)
Погода в Гхазипуре (Уттар-Прадеш, Индия) (242 км)

Пояснения к столбцам:

Ветер - указаны скорость ветра в м/с - средняя за 10 мин, порывы в срок и между сроками (в фигурных скобках) и направление, откуда дует ветер: С - северный, СВ - северо-восточный, В - восточный, ЮВ - юго-восточный, Ю - южный, ЮЗ - юго-западный, З - западный, СЗ - северо-западный.
Видимость - горизонтальная дальность видимости в метрах или километрах. При видимости от 1 до 10 км при отсутствии осадков обычно наблюдается дымка, при ухудшении видимости до 1 км и менее - туман. В сухую погоду видимость может ухудшаться дымом, пылью или мглою.
Явления - указаны атмосферные явления, наблюдавшиеся в срок или в последний час перед сроком; фигурными скобками обозначены явления, наблюдавшиеся между сроками (за 1-3 часа до срока); квадратными скобками обозначены град или гололедные отложения с указанием их диаметра в мм.
Облачность - указаны через наклонную черту общая и нижняя облачность в баллах и высота нижней границы облаков в метрах; квадратными скобками обозначены формы облаков: Ci - перистые, Cs - перисто-слоистые, Cc - перисто-кучевые, Ac - высококучевые, As - высокослоистые, Sc - слоисто-кучевые, Ns - слоисто-дождевые, Cu - кучевые, Cb - кучево-дождевые. Подробнее классификацию облаков см. в Атласе облаков (PDF).
T - Температура воздуха - температура, измеренная на высоте 2 м над землей.
Td - Температура точки росы - температура, при понижении до которой содержащийся в воздухе водяной пар достигнет насыщения.
f - Относительная влажность воздуха - влажноcть воздуха, измеренная на высоте 2 м над землей.
Te - Эффективная температура - температура, которую ощущает одетый по сезону человек в тени. Характеристика душности погоды. При расчете учитывается влияние влажности воздуха и скорости ветра на теплоощущения человека.
Tes - Эффективная температура на солнце - температура, которую ощущает человек, с поправкой на солнечный нагрев. Характеристика знойности погоды. Зависит от высоты солнца над горизонтом, облачности и скорости ветра. Ночью, в пасмурную погоду, а также при ветре 12 м/с и более поправка равна нулю.
P - Атмосферное давление - приведенное к уровню моря атмосферное давление.
Po - Атмосферное давление - измеренное на уровне метеостанции атмосферное давление.
Tmin - Минимальная температура - минимум температуры воздуха на высоте 2 м над землей.
Tmax - Максимальная температура - максимум температуры воздуха на высоте 2 м над землей.
R - Количество осадков - Количество выпавших осадков за период времени, мм. При наведении курсора мыши на число - период времени, за который выпало указанное количество осадков.
R24 - Количество осадков - Количество выпавших осадков за 24 часа, мм.
S - Снежный покров - Высота снежного покрова, см. При наведении курсора мыши на число - состояние снежного покрова и степень покрытия местности в баллах.